[[{"header":{"parameterUnit":"m.s-1","parameterCategory":1,"la1":30.2991,"la2":30.254,"lo1":-89.0895,"lo2":-89.0444,"dy":0.0017,"dx":0.0017,"nx":28,"ny":28,"refTime":"2024-04-10T03:00:00:Z","depth":0,"parameterNumber":2,"parameterNumberName":"U-component_of_WINDS"},"data":[0,0,0,0,0,0,0,0,0,0,0,0,0,0,0,0,0,0,0,0,0,0,0,0,0,0,0,0,0,0,0,0,0,0,0,0,0,0,0,0,0,0,0,0,0,0,0,0,0,0,0,0,0,0,0,0,0,0,3.0444,3.0446,0,3.0574,3.0575,3.0577,3.0547,3.0544,3.0542,3.0539,3.0674,3.068,3.0685,0,0,0,0,0,0,0,0,0,0,0,0,0,3.0174,3.018,3.0444,3.0446,3.0448,3.0573,3.0575,3.0577,3.0547,3.0544,3.0541,3.0538,3.0672,3.0679,3.0686,0,0,0,0,0,0,0,0,0,0,0,0,0,3.0297,3.0181,3.0444,3.0448,3.0449,3.0573,3.0575,3.0577,3.0548,3.0544,3.054,3.0537,3.067,3.0678,3.0687,3.0815,0,0,3.0714,3.0718,0,0,0,0,0,0,0,0,3.029,3.0306,3.0446,3.0448,3.045,3.054,3.0529,3.0657,3.0549,3.0511,3.0539,3.0535,3.0633,3.0644,3.0677,3.0822,3.0827,3.0715,3.072,3.0724,3.0726,0,0,0,0,0,0,0,3.0281,3.0301,3.0495,3.0448,3.045,3.0444,3.0457,3.0553,3.0591,3.0514,3.0512,3.0527,3.0633,3.0668,3.0679,3.0829,3.0714,3.0722,3.0728,3.0731,3.1088,3.1092,0,0,0,0,0,0,3.0271,3.0294,3.0491,3.0499,3.0359,3.0452,3.0467,3.0515,3.059,3.0597,3.053,3.0525,3.0655,3.0669,3.0684,3.084,3.0724,3.0732,3.0737,3.1084,3.1089,3.1093,0,0,0,0,0,0,3.0265,3.0289,3.0486,3.0396,3.0421,3.046,3.0515,3.0519,3.0555,3.0602,3.0609,3.0559,3.0653,3.0672,3.0783,3.0844,3.0736,3.0744,3.1079,3.1085,3.1091,3.1153,0,0,0,0,0,0,3.0257,3.0287,3.0335,3.0397,3.0426,3.0582,3.0519,3.0525,3.057,3.0564,3.0631,3.0639,3.0651,3.077,3.0792,3.0855,3.0751,3.1073,3.1082,3.1089,3.1146,3.1161,3.1174,0,0,0,0,0,3.0248,3.0348,3.0338,3.0362,3.0487,3.0586,3.0602,3.0614,3.0575,3.0624,3.0655,3.0637,3.0834,3.0782,3.0806,3.0872,3.107,3.1079,3.1088,3.114,3.1158,3.1173,0,0,0,0,0,0,3.0292,3.0356,3.0346,3.0468,3.0522,3.0581,3.0643,3.0633,3.0699,3.0691,3.0704,3.0719,3.0833,3.0864,3.0804,3.1001,3.0946,3.0961,3.0977,3.0995,3.1008,3.0999,3.0758,0,0,0,0,0,3.0316,3.039,3.0442,3.0546,3.0573,3.0604,3.0647,3.0652,3.0708,3.073,3.0769,3.0825,3.09,3.0949,3.102,3.115,3.1165,3.1208,3.1222,3.1233,3.1246,3.1318,3.1338,3.1124,3.1124,3.1124,0,0,3.0366,3.041,3.0456,3.0556,3.0597,3.0675,3.0623,3.0707,3.0765,3.0743,3.0851,3.0882,3.0945,3.1066,3.1122,3.1096,3.1308,3.1245,3.1253,3.126,3.133,3.135,3.1368,3.1131,3.1129,3.1128,0,0,3.0498,3.0538,3.0629,3.0672,3.0736,3.0756,3.0778,3.0839,3.0859,3.0967,3.0953,3.1022,3.1151,3.1197,3.1237,3.1387,3.1373,3.141,3.1483,3.1553,3.157,3.1585,3.1639,3.1659,3.1423,3.1423,3.1423,0,3.0552,3.0667,3.0677,3.0763,3.0808,3.0791,3.0885,3.0926,3.1011,3.1042,3.1012,3.1173,3.1215,3.1347,3.1384,3.1417,3.1443,3.1403,3.1566,3.1582,3.1596,3.1648,3.1668,3.1427,3.1426,3.1426,3.1426,0,3.0732,3.0812,3.0878,3.096,3.1012,3.1101,3.1125,3.1177,3.1177,3.1201,3.1312,3.1361,3.1443,3.1475,3.1476,3.1608,3.159,3.1563,3.1508,3.162,3.1669,3.1689,3.1433,3.1431,3.143,3.1429,0,0,3.0894,3.0981,3.1005,3.1042,3.1113,3.1175,3.1264,3.1343,3.1388,3.1447,3.1523,3.1632,3.1608,3.1654,3.166,3.1722,3.1839,3.1687,3.1689,3.1714,3.1989,3.2009,3.2032,3.183,3.1834,3.1837,3.1984,0,3.1033,3.1188,3.12,3.1341,3.1416,3.1402,3.148,3.1532,3.1557,3.1625,3.1652,3.173,3.1692,3.1719,3.178,3.1812,3.1894,3.1801,3.1901,3.1905,3.1886,3.2058,3.2079,3.2215,3.2003,3.2006,3.2009,0,3.1214,3.1279,3.1427,3.1487,3.1519,3.1589,3.1663,3.1728,3.1787,3.1801,3.1853,3.1851,3.1944,3.1885,3.2014,3.195,3.1992,3.2014,3.202,3.203,3.1964,3.2073,3.2259,3.228,3.2039,3.2037,3.2034,0,3.1319,3.1443,3.1547,3.158,3.1653,3.1702,3.1735,3.1791,3.1838,3.1903,3.1934,3.201,3.2051,3.2111,3.213,3.2085,3.2258,3.2201,3.2273,3.2273,3.231,3.2307,3.2506,3.2336,3.2336,3.2336,3.2335,0,3.1472,3.1564,3.1595,3.166,3.1762,3.1776,3.1877,3.1908,3.1957,3.2028,3.2022,3.2089,3.211,3.2181,3.2197,3.2301,3.232,3.2334,3.2338,3.2335,3.2334,3.2363,3.2354,3.2341,3.234,3.2339,3.2338,0,3.1606,3.1631,3.1745,3.1805,3.1822,3.1895,3.1947,3.201,3.2033,3.2124,3.2146,3.2183,3.2267,3.2292,3.2392,3.2403,3.2526,3.252,3.2506,3.2506,3.2577,3.257,3.2802,3.2833,3.2642,3.2644,3.2645,0,3.1702,3.1772,3.184,3.1887,3.1922,3.1997,3.2045,3.2062,3.2113,3.2186,3.2241,3.2323,3.239,3.2524,3.2561,3.2638,3.2635,3.2711,3.2646,3.2642,3.2637,3.2633,3.264,3.2723,3.2725,3.2727,3.2728,0,3.1871,3.188,3.195,3.2024,3.2082,3.2141,3.2199,3.2238,3.2263,3.232,3.2405,3.2457,3.256,3.2642,3.2721,3.2756,3.2747,3.2748,3.2769,3.2767,3.2756,3.2764,3.2539,3.2742,3.2741,3.274,3.2739,3.2739,3.199,3.2052,3.2109,3.2187,3.2232,3.2286,3.2348,3.238,3.2451,3.2535,3.2541,3.2633,3.2692,3.2797,3.2836,3.2909,3.2887,3.2917,3.2925,3.2932,3.2939,3.2744,3.2924,3.2923,3.2923,3.2923,3.2922,0,3.2159,3.2195,3.2267,3.2347,3.2409,3.2394,3.2457,3.251,3.2591,3.2646,3.2712,3.2811,3.2891,3.2935,3.3015,3.3065,3.3063,3.3086,3.3082,3.3091,3.2953,3.2927,3.3086,3.3086,3.3086,3.3086,3.3086,3.3086,3.2254,3.2358,3.2374,3.2501,3.2537,3.2627,3.2665,3.2715,3.2759,3.2869,3.2935,3.2963,3.3014,3.3098,3.3171,3.3182,3.3213,3.3238,3.3246,3.3117,3.31,3.3084,3.306,3.3244,3.3244,3.3378,3.3379,3.338]},{"header":{"parameterUnit":"m.s-1","parameterCategory":1,"la1":30.2991,"la2":30.254,"lo1":-89.0895,"lo2":-89.0444,"dy":0.0017,"dx":0.0017,"nx":28,"ny":28,"refTime":"2024-04-10T03:00:00:Z","depth":0,"parameterNumber":3,"parameterNumberName":"V-component_of_WINDS"},"data":[0,0,0,0,0,0,0,0,0,0,0,0,0,0,0,0,0,0,0,0,0,0,0,0,0,0,0,0,0,0,0,0,0,0,0,0,0,0,0,0,0,0,0,0,0,0,0,0,0,0,0,0,0,0,0,0,0,0,-2.2018,-2.202,0,-2.2221,-2.2223,-2.2225,-2.224,-2.2238,-2.2235,-2.2233,-2.2444,-2.2451,-2.2459,0,0,0,0,0,0,0,0,0,0,0,0,0,-2.1647,-2.1654,-2.2018,-2.202,-2.2023,-2.222,-2.2223,-2.2226,-2.224,-2.2237,-2.2235,-2.2232,-2.2441,-2.245,-2.246,0,0,0,0,0,0,0,0,0,0,0,0,0,-2.1825,-2.1656,-2.2017,-2.2054,-2.2059,-2.222,-2.2223,-2.2227,-2.2241,-2.2237,-2.2234,-2.2231,-2.2438,-2.2449,-2.2461,-2.26,0,0,-2.2496,-2.2501,0,0,0,0,0,0,0,0,-2.1815,-2.1838,-2.2046,-2.2052,-2.2058,-2.2201,-2.217,-2.2352,-2.2242,-2.2172,-2.2233,-2.2229,-2.2366,-2.2383,-2.2429,-2.261,-2.2619,-2.2497,-2.2504,-2.2509,-2.2512,0,0,0,0,0,0,0,-2.1802,-2.183,-2.2098,-2.2049,-2.2056,-2.2061,-2.2083,-2.2204,-2.2286,-2.2178,-2.2179,-2.2203,-2.2369,-2.2418,-2.2434,-2.2622,-2.2497,-2.2507,-2.2514,-2.2519,-2.293,-2.2933,0,0,0,0,0,0,-2.1783,-2.1819,-2.2092,-2.2104,-2.1925,-2.2071,-2.2095,-2.2159,-2.2284,-2.23,-2.2205,-2.2203,-2.24,-2.242,-2.2441,-2.2614,-2.2509,-2.252,-2.2527,-2.2926,-2.293,-2.2935,0,0,0,0,0,0,-2.1775,-2.1807,-2.2083,-2.1962,-2.1998,-2.2081,-2.2152,-2.2165,-2.2214,-2.2305,-2.232,-2.224,-2.2398,-2.2425,-2.2561,-2.2622,-2.2525,-2.2536,-2.2921,-2.2927,-2.2933,-2.2959,0,0,0,0,0,0,-2.1764,-2.1804,-2.1856,-2.1963,-2.2004,-2.2198,-2.2156,-2.2171,-2.2233,-2.2231,-2.2342,-2.2357,-2.2397,-2.2543,-2.2572,-2.2636,-2.2545,-2.2916,-2.2924,-2.2931,-2.2954,-2.2966,-2.2976,0,0,0,0,0,-2.1751,-2.1856,-2.1859,-2.1892,-2.2072,-2.2202,-2.2225,-2.2268,-2.2238,-2.2292,-2.2352,-2.2354,-2.261,-2.2557,-2.259,-2.2658,-2.2912,-2.2921,-2.293,-2.2948,-2.2963,-2.2976,0,0,0,0,0,0,-2.1755,-2.1871,-2.1875,-2.2018,-2.21,-2.2204,-2.2274,-2.2282,-2.2375,-2.237,-2.242,-2.2445,-2.258,-2.2632,-2.2571,-2.28,-2.2758,-2.2774,-2.2761,-2.2776,-2.2786,-2.2772,-2.2554,0,0,0,0,0,-2.1772,-2.1867,-2.1964,-2.2081,-2.2121,-2.219,-2.2249,-2.2275,-2.2362,-2.2397,-2.2466,-2.2551,-2.2651,-2.2716,-2.2813,-2.2961,-2.2986,-2.3024,-2.3035,-2.3044,-2.3057,-2.3142,-2.316,-2.2964,-2.2964,-2.2964,0,0,-2.181,-2.1885,-2.1942,-2.2083,-2.215,-2.2248,-2.2219,-2.2324,-2.2399,-2.2413,-2.2546,-2.2599,-2.2698,-2.2841,-2.2907,-2.2889,-2.3117,-2.3055,-2.3061,-2.3071,-2.3153,-2.3171,-2.3187,-2.297,-2.2969,-2.2968,0,0,-2.1928,-2.1994,-2.2099,-2.2166,-2.2267,-2.2313,-2.2338,-2.2441,-2.2477,-2.2611,-2.2624,-2.2714,-2.2884,-2.2955,-2.3013,-2.316,-2.3166,-2.319,-2.3249,-2.333,-2.3346,-2.336,-2.3414,-2.3432,-2.3203,-2.3203,-2.3203,0,-2.1962,-2.211,-2.2153,-2.2258,-2.2321,-2.2338,-2.2446,-2.2509,-2.2637,-2.2681,-2.2658,-2.2874,-2.2941,-2.3102,-2.3137,-2.3183,-2.3216,-2.3178,-2.334,-2.3354,-2.3368,-2.342,-2.344,-2.3205,-2.3205,-2.3205,-2.3204,0,-2.2148,-2.225,-2.2323,-2.2446,-2.2517,-2.2623,-2.2683,-2.275,-2.277,-2.2819,-2.2956,-2.3038,-2.3152,-2.3192,-2.3213,-2.3356,-2.3342,-2.3329,-2.3288,-2.3388,-2.3438,-2.3458,-2.3209,-2.3208,-2.3207,-2.3206,0,0,-2.2275,-2.242,-2.2446,-2.2502,-2.2615,-2.2696,-2.2804,-2.2915,-2.2973,-2.306,-2.3153,-2.3298,-2.3287,-2.3353,-2.3382,-2.3453,-2.3567,-2.3432,-2.3435,-2.3456,-2.3732,-2.3742,-2.3764,-2.3571,-2.3575,-2.3578,-2.3724,0,-2.2407,-2.2598,-2.264,-2.2805,-2.2902,-2.292,-2.3014,-2.3094,-2.3143,-2.3233,-2.3286,-2.3389,-2.3366,-2.3406,-2.3477,-2.3538,-2.3623,-2.3527,-2.366,-2.3664,-2.3636,-2.379,-2.3801,-2.3935,-2.3744,-2.3747,-2.375,0,-2.2587,-2.2678,-2.2853,-2.2955,-2.2997,-2.308,-2.3187,-2.3272,-2.3364,-2.3394,-2.3469,-2.3491,-2.3605,-2.3558,-2.3718,-2.3652,-2.3709,-2.3747,-2.3753,-2.3768,-2.3714,-2.3811,-2.3979,-2.4,-2.3781,-2.3778,-2.3776,0,-2.2664,-2.2831,-2.2957,-2.3005,-2.3126,-2.3185,-2.3238,-2.3327,-2.3392,-2.3485,-2.3528,-2.3634,-2.3692,-2.3775,-2.3826,-2.3786,-2.3982,-2.3938,-2.4012,-2.4011,-2.4054,-2.4051,-2.4235,-2.4088,-2.4087,-2.4087,-2.4087,0,-2.2808,-2.2915,-2.2994,-2.3072,-2.3193,-2.324,-2.3359,-2.3413,-2.3492,-2.3582,-2.3604,-2.3688,-2.3749,-2.3843,-2.3884,-2.4011,-2.4037,-2.4066,-2.4076,-2.4065,-2.4062,-2.4104,-2.4097,-2.4092,-2.4091,-2.409,-2.4089,0,-2.2915,-2.2972,-2.3112,-2.3215,-2.3243,-2.3328,-2.3417,-2.3495,-2.3543,-2.3657,-2.3687,-2.3764,-2.3876,-2.3934,-2.4073,-2.4101,-2.4244,-2.4248,-2.4213,-2.4218,-2.4289,-2.4282,-2.4508,-2.4541,-2.437,-2.4371,-2.4373,0,-2.3004,-2.3086,-2.3199,-2.326,-2.3315,-2.3413,-2.3479,-2.353,-2.3599,-2.3711,-2.3775,-2.3888,-2.398,-2.4158,-2.4227,-2.4334,-2.4342,-2.4414,-2.4358,-2.4345,-2.4345,-2.4341,-2.435,-2.4424,-2.4425,-2.4427,-2.4428,0,-2.3156,-2.3181,-2.3275,-2.3379,-2.3458,-2.3543,-2.3627,-2.3676,-2.3741,-2.3818,-2.3931,-2.4003,-2.4145,-2.4257,-2.437,-2.4427,-2.444,-2.4444,-2.4468,-2.4458,-2.4435,-2.4451,-2.4242,-2.4439,-2.4438,-2.4437,-2.4437,-2.4436,-2.3258,-2.3333,-2.3424,-2.3529,-2.3597,-2.3676,-2.3754,-2.3813,-2.3908,-2.4027,-2.4052,-2.4173,-2.4265,-2.4417,-2.4477,-2.4574,-2.4559,-2.4592,-2.4601,-2.4609,-2.4613,-2.4418,-2.4594,-2.4594,-2.4594,-2.4594,-2.4594,0,-2.3413,-2.3473,-2.3569,-2.3686,-2.3768,-2.3771,-2.3865,-2.3935,-2.404,-2.4125,-2.4215,-2.4347,-2.4456,-2.4535,-2.4646,-2.4709,-2.4717,-2.4736,-2.4733,-2.4747,-2.4619,-2.4588,-2.4728,-2.4728,-2.4728,-2.4728,-2.4728,-2.4727,-2.3504,-2.3631,-2.3667,-2.3829,-2.3888,-2.4006,-2.4059,-2.4133,-2.42,-2.4346,-2.4437,-2.4486,-2.457,-2.4687,-2.4789,-2.4809,-2.485,-2.4869,-2.489,-2.4769,-2.4755,-2.4742,-2.4714,-2.4877,-2.4877,-2.5011,-2.5012,-2.5013]}]]